Harlan, IA

10:30 PM CST on December 13, 2019 (GMT -0600)
Harlan Municipal

Weather History for KHNR - October, 2019

Change the Weather History Date:

Thursday, October 17, 2019

  Actual Average Record
Temperature  
Mean Temperature 50 °F -  
Max Temperature 68 °F 62 °F 84 °F (2016)
Min Temperature 32 °F 38 °F 16 °F (1976)
Degree Days  
Heating Degree Days 15    
Moisture  
Dew Point 38 °F    
Average Humidity 72    
Maximum Humidity 100    
Minimum Humidity 35    
Precipitation  
Precipitation 0.00 in - - ()
Sea Level Pressure  
Sea Level Pressure 29.91 in    
Wind  
Wind Speed 5 mph ()    
Max Wind Speed 17 mph    
Max Gust Speed 22 mph    
Visibility 8.7 miles    
Events      
Averages and records for this station are not official NWS values.
T = Trace of Precipitation, MM = Missing Value Source: Averaged Metar Reports

Daily Weather History Graph

Daily Weather History Graph

Search for Another Location

Airport or City:

Astronomy

Oct. 17, 2019 Rise Set
Actual Time 7:35 AM CDT 6:37 PM CDT
Civil Twilight 7:07 AM CDT 7:05 PM CDT
Nautical Twilight 6:35 AM CDT 7:37 PM CDT
Astronomical Twilight 6:03 AM CDT 8:09 PM CDT
Moon 9:07 PM CDT (10/17) 11:10 AM CDT (10/17)
Length of Visible Light 11h 57m
Length of Day
11h 01m
Waning Gibbous, 86% of the Moon is Illuminated
Oct 17
Waning Gibbous
Oct 21
Last Quarter
Oct 27
New
Nov 4
First Quarter
Nov 12
Full

Hourly Weather History & Observations

Time (CDT) Temp. Windchill Dew Point Humidity Pressure Visibility Wind Dir Wind Speed Gust Speed Precip Events Conditions
12:15 AM 33.8 °F - 33.8 °F 100% 30.05 in 10.0 mi Calm Calm - N/A   Clear
12:35 AM 33.8 °F - 33.8 °F 100% 30.04 in 10.0 mi Calm Calm - N/A   Clear
12:55 AM 33.8 °F - 33.8 °F 100% 30.04 in 10.0 mi Calm Calm - N/A   Clear
1:15 AM 33.8 °F - 33.8 °F 100% 30.04 in 10.0 mi Calm Calm - N/A   Clear
1:35 AM 32.0 °F - 32.0 °F 100% 30.03 in 10.0 mi Calm Calm - N/A   Clear
1:55 AM 32.0 °F - 32.0 °F 100% 30.02 in 10.0 mi Calm Calm - N/A   Clear
2:15 AM 32.0 °F - 32.0 °F 100% 30.02 in 10.0 mi Calm Calm - N/A   Clear
2:35 AM 33.8 °F - 33.8 °F 100% 30.02 in 10.0 mi Calm Calm - N/A   Clear
2:55 AM 32.0 °F - 32.0 °F 100% 30.02 in 10.0 mi Calm Calm - N/A   Clear
3:15 AM 32.0 °F - 32.0 °F 100% 30.01 in 10.0 mi Calm Calm - N/A   Clear
3:55 AM 32.0 °F - 32.0 °F 100% 29.99 in 10.0 mi Calm Calm - N/A   Clear
4:15 AM 33.8 °F - 33.8 °F 100% 29.99 in 10.0 mi Calm Calm - N/A   Clear
4:35 AM 32.0 °F - 32.0 °F 100% 29.99 in 10.0 mi Calm Calm - N/A   Clear
4:55 AM 32.0 °F - 32.0 °F 100% 29.99 in 10.0 mi Calm Calm - N/A   Clear
5:15 AM 32.0 °F - 32.0 °F 100% 29.98 in 10.0 mi Calm Calm - N/A   Clear
5:35 AM 32.0 °F - 32.0 °F 100% 29.99 in 10.0 mi Calm Calm - N/A   Clear
5:55 AM 32.0 °F - 32.0 °F 100% 29.99 in 10.0 mi Calm Calm - N/A   Clear
6:35 AM 32.0 °F - 32.0 °F 100% 29.99 in 10.0 mi Calm Calm - N/A   Clear
6:55 AM 32.0 °F - 32.0 °F 100% 29.99 in 10.0 mi Calm Calm - N/A   Clear
7:15 AM 32.0 °F - 32.0 °F 100% 29.98 in 10.0 mi Calm Calm - N/A   Clear
7:35 AM 32.0 °F - 32.0 °F 100% 29.99 in 10.0 mi Calm Calm - N/A   Clear
7:55 AM 32.0 °F - 32.0 °F 100% 29.98 in 9.0 mi Calm Calm - N/A   Clear
8:15 AM 33.8 °F - 33.8 °F 100% 29.99 in 8.0 mi Calm Calm - N/A   Clear
8:35 AM 35.6 °F - 35.6 °F 100% 29.99 in 9.0 mi Calm Calm - N/A   Clear
8:55 AM 41.0 °F - 39.2 °F 93% 29.99 in 9.0 mi Calm Calm - N/A   Clear
9:15 AM 42.8 °F 40.1 °F 41.0 °F 93% 29.98 in 10.0 mi SSE 4.6 mph - N/A   Clear
9:35 AM 46.4 °F 42.9 °F 41.0 °F 81% 29.98 in 5.0 mi South 6.9 mph - N/A   Haze
9:55 AM 48.2 °F - 41.0 °F 76% 29.98 in 6.0 mi South 9.2 mph - N/A   Haze
10:35 AM 51.8 °F - 41.0 °F 67% 29.97 in 7.0 mi SSE 8.1 mph 13.8 mph N/A   Clear
10:55 AM 53.6 °F - 41.0 °F 62% 29.96 in 5.0 mi SSE 11.5 mph - N/A   Haze
11:15 AM 57.2 °F - 41.0 °F 55% 29.95 in 6.0 mi SSE 11.5 mph - N/A   Haze
11:35 AM 59.0 °F - 41.0 °F 51% 29.94 in 6.0 mi SSE 9.2 mph 18.4 mph N/A   Haze
11:55 AM 59.0 °F - 39.2 °F 48% 29.93 in 8.0 mi South 13.8 mph - N/A   Clear
12:15 PM 59.0 °F - 39.2 °F 48% 29.92 in 5.0 mi SSE 16.1 mph - N/A   Haze
12:35 PM 60.8 °F - 39.2 °F 45% 29.92 in 6.0 mi South 12.7 mph 20.7 mph N/A   Haze
12:55 PM 62.6 °F - 39.2 °F 42% 29.91 in 6.0 mi South 13.8 mph 21.9 mph N/A   Haze
1:35 PM 64.4 °F - 39.2 °F 40% 29.89 in 5.0 mi South 13.8 mph 21.9 mph N/A   Haze
1:55 PM 64.4 °F - 39.2 °F 40% 29.88 in 5.0 mi SE 17.3 mph - N/A   Haze
2:15 PM 64.4 °F - 39.2 °F 40% 29.87 in 6.0 mi SSE 16.1 mph - N/A   Haze
2:35 PM 66.2 °F - 39.2 °F 37% 29.86 in 8.0 mi South 15.0 mph - N/A   Clear
2:55 PM 66.2 °F - 37.4 °F 35% 29.85 in 6.0 mi SSE 16.1 mph 21.9 mph N/A   Haze
3:15 PM 66.2 °F - 39.2 °F 37% 29.84 in 8.0 mi SSE 13.8 mph - N/A   Clear
3:35 PM 66.2 °F - 39.2 °F 37% 29.83 in 5.0 mi SSE 11.5 mph 20.7 mph N/A   Haze
3:55 PM 66.2 °F - 39.2 °F 37% 29.83 in 8.0 mi South 15.0 mph - N/A   Clear
4:15 PM 68.0 °F - 39.2 °F 35% 29.82 in 5.0 mi South 17.3 mph - N/A   Haze
4:35 PM 66.2 °F - 39.2 °F 37% 29.82 in 4.0 mi SSE 13.8 mph 20.7 mph N/A   Haze
4:55 PM 66.2 °F - 39.2 °F 37% 29.82 in 8.0 mi SSE 16.1 mph - N/A   Clear
5:15 PM 64.4 °F - 41.0 °F 42% 29.82 in 10.0 mi SSE 12.7 mph 19.6 mph N/A   Clear
5:35 PM 64.4 °F - 41.0 °F 42% 29.82 in 7.0 mi SSE 13.8 mph - N/A   Clear
5:55 PM 62.6 °F - 41.0 °F 45% 29.82 in 10.0 mi SSE 10.4 mph 18.4 mph N/A   Clear
6:15 PM 60.8 °F - 42.8 °F 52% 29.82 in 9.0 mi SE 8.1 mph - N/A   Clear
6:35 PM 59.0 °F - 42.8 °F 55% 29.82 in 10.0 mi SE 9.2 mph - N/A   Clear
6:55 PM 59.0 °F - 42.8 °F 55% 29.82 in 10.0 mi SE 9.2 mph 15.0 mph N/A   Clear
7:15 PM 59.0 °F - 42.8 °F 55% 29.82 in 10.0 mi SE 12.7 mph - N/A   Clear
7:35 PM 57.2 °F - 42.8 °F 59% 29.82 in 10.0 mi SE 10.4 mph 16.1 mph N/A   Clear
7:55 PM 57.2 °F - 42.8 °F 59% 29.83 in 10.0 mi SE 10.4 mph - N/A   Clear
8:15 PM 57.2 °F - 42.8 °F 59% 29.82 in 10.0 mi SE 11.5 mph 18.4 mph N/A   Clear
8:35 PM 55.4 °F - 42.8 °F 63% 29.82 in 10.0 mi SSE 10.4 mph - N/A   Clear
8:55 PM 55.4 °F - 44.6 °F 67% 29.82 in 10.0 mi SSE 11.5 mph 17.3 mph N/A   Clear
9:15 PM 55.4 °F - 44.6 °F 67% 29.82 in 10.0 mi SSE 11.5 mph - N/A   Clear
9:35 PM 55.4 °F - 44.6 °F 67% 29.83 in 10.0 mi SSE 9.2 mph - N/A   Clear
9:55 PM 53.6 °F - 44.6 °F 72% 29.82 in 10.0 mi SSE 10.4 mph - N/A   Clear
10:15 PM 53.6 °F - 44.6 °F 72% 29.82 in 10.0 mi SSE 10.4 mph - N/A   Clear
10:35 PM 53.6 °F - 44.6 °F 72% 29.82 in 10.0 mi SSE 10.4 mph - N/A   Clear
10:55 PM 53.6 °F - 44.6 °F 72% 29.82 in 10.0 mi SSE 10.4 mph - N/A   Clear
11:15 PM 51.8 °F - 44.6 °F 76% 29.82 in 10.0 mi SSE 9.2 mph - N/A   Clear
11:35 PM 51.8 °F - 44.6 °F 76% 29.82 in 10.0 mi South 9.2 mph - N/A   Clear
11:55 PM 51.8 °F - 44.6 °F 76% 29.81 in 10.0 mi SSE 13.8 mph 19.6 mph N/A   Clear